Regional Weather Roundup
Issued by NWS

Home | Current Version | Previous Version | Graphics & Text | Print | Product List | Glossary On
Versions: 1 2 3 4 5 6 7 8 9 10 11 12 13 14 15 16 17 18 19 20 21 22 23 24 25 26 27 28 29 30 31 32 33 34 35 36 37 38 39 40 41 42 43 44 45 46 47 48 49 50
000
ASUS43 KLOT 030712
RWRIL

ILLINOIS REGIONAL WEATHER ROUNDUP
NATIONAL WEATHER SERVICE CHICAGO/ROMEOVILLE IL
200 AM CDT FRI JUL 03 2015

NOTE: "FAIR" INDICATES FEW OR NO CLOUDS BELOW 12,000 FEET WITH NO
SIGNIFICANT WEATHER AND/OR OBSTRUCTIONS TO VISIBILITY.

* THESE STATIONS ARE NOT UNDER NWS QUALITY CONTROL. THEY ALSO MAY NOT
  REPORT WEATHER SUCH AS PRECIPITATION OR FOG.

ILZ001-002-007-009-015-016-024-030800-
NORTHWEST ILLINOIS

CITY           SKY/WX    TMP DP  RH WIND       PRES   REMARKS
MOLINE         CLOUDY    62  57  83 E5        29.97F
STERLING*      CLOUDY    57  55  94 E7        29.98S
SAVANNA*       CLOUDY    59  54  84 NE3       29.99S
$$

ILZ003-004-008-010-011-017-018-030800-
NORTH CENTRAL ILLINOIS

CITY           SKY/WX    TMP DP  RH WIND       PRES   REMARKS
ROCKFORD       CLOUDY    57  49  74 E6        30.00F
FREEPORT*      CLOUDY    53  52  95 E3        30.01F
ROCHELLE*      CLOUDY    56  51  82 NE8       29.99F
DE KALB*       MOCLDY    52  48  88 NE6       29.99F
PERU*          CLOUDY    59  53  81 NE8       29.98S
$$

ILZ005-006-012>014-019>023-030800-
NORTHEAST ILLINOIS

CITY           SKY/WX    TMP DP  RH WIND       PRES   REMARKS
CHICAGO-OHARE  CLOUDY    56  48  74 N5        29.98F
CHICAGO-MIDWAY CLOUDY    62  51  67 N6        29.97F
AURORA         MOCLDY    56  49  77 NE6       29.98F
LANSING*       MOCLDY    59  55  84 CALM      29.97F
JOLIET*        CLOUDY    60  52  75 NE6       29.97S
WAUKEGAN       MOCLDY    52  49  89 N3        29.99F
DUPAGE AIRPORT MOCLDY    53  48  83 N5        29.98F
KANKAKEE*      CLOUDY    59  57  94 NE7       29.96S
WHEELING       MOCLDY    56  48  74 N3        29.99F
MORRIS*        CLOUDY    57  52  82 CALM      29.95S
ROMEOVILLE*    MOCLDY    58  49  74 NE8       29.97F
NORTHERLY ISL    N/A     61  54  77 MISG        N/A
$$

LMZ740>746-030800-
SOUTHERN LAKE MICHIGAN

STATION/POSITION SKY/WX   TEMP    WIND        PRES    VSBY  WAVE
                          AIR SEA DIR/SP/G                  HT/PER
                          (F)     (DEG/KT/KT) (MB)    (MI)  (FT/S)
HARRISON CRIB              61     350/  7/  8   N/A
BURNHAM HARBOR             61     360/  3/  8   N/A
CALUMET HARBOR             60     350/  4/  6   N/A
BURNS HARBOR               61      60/  9/ 10 1015.9F
MICHIGAN CITY              59      50/  5/  6   N/A
MICHIGAN CITY 6N           60 62   90/  8/ 10   N/A           2/ 5
ST. JOSEPH                 61 61                N/A           2/ 4
$$

ILZ025>027-034>036-040-047-049-050-058-095>099-030800-
WEST-CENTRAL ILLINOIS

CITY           SKY/WX    TMP DP  RH WIND       PRES   REMARKS
QUINCY         CLOUDY    64  61  90 NE7       29.94F
GALESBURG*     CLOUDY    61  58  89 CALM      29.96F
MACOMB*        CLOUDY    62  60  94 N3        29.98F
JACKSONVILLE*  CLOUDY    66  62  88 N3        29.93S
PITTSFIELD*    CLOUDY    65  61  85 N5        29.95F
$$

ILZ028>032-037-038-041>044-048-051>054-059>061-030800-
CENTRAL ILLINOIS

CITY           SKY/WX    TMP DP  RH WIND       PRES   REMARKS
PONTIAC        CLOUDY    60  57  88 NE8       29.96S
BLOOMINGTON    CLOUDY    60  58  93 NE12      29.96F
DECATUR        CLOUDY    63  60  90 NE8       29.91F
PEORIA         CLOUDY    66  56  70 NE9       29.95F
LACON*         CLOUDY    60  55  84 CALM      29.96S
LINCOLN*       CLOUDY    64  59  82 N5        29.94S
SPRINGFIELD    CLOUDY    66  61  84 N5        29.92F
TAYLORVILLE    CLOUDY    63  61  94 N3        29.91S
$$

ILZ033-039-045-046-055>057-062-063-030800-
EAST-CENTRAL ILLINOIS

CITY           SKY/WX    TMP DP  RH WIND       PRES   REMARKS
CHAMPAIGN      CLOUDY    65  59  81 NE9       29.92F
DANVILLE*      CLOUDY    64  60  89 NE5       29.91R
RANTOUL*       CLOUDY    64  60  88 NE10      29.93F
MATTOON        CLOUDY    65  62  90 N7        29.88F
PARIS*         CLOUDY    67  64  87 NE6       29.91F
$$

ILZ079-100>102-030800-
SOUTHWEST ILLINOIS

CITY           SKY/WX    TMP DP  RH WIND       PRES   REMARKS
ALTON          MOCLDY    66  66 100 NW3       29.91S
BELLEVILLE     CLOUDY    68  65  90 VRB2      29.87F
CAHOKIA*       CLOUDY    69  63  81 N6        29.89F
SPARTA*        CLOUDY    68  64  86 CALM      29.89F
$$

ILZ064>066-069>071-074>076-080>082-084>086-088>090-092>094-030800-
SOUTH-CENTRAL ILLINOIS

CITY           SKY/WX    TMP DP  RH WIND       PRES   REMARKS
CARBONDALE     CLOUDY    71  67  87 N5        29.86F
CAIRO*         MOCLDY    71  69  94 CALM      29.84F
EFFINGHAM*     MOCLDY    68  63  84 N3        29.89F
MARION         CLOUDY    72  70  94 N3        29.86F
MT. VERNON     CLOUDY    68  63  83 CALM      29.87F
CENTRALIA*     CLOUDY    67  64  89 CALM      29.88S
SALEM*         CLOUDY    69  65  87 CALM      29.87F
METROPOLIS*    CLOUDY    73  73 100 CALM      29.85F
$$

ILZ067-068-072-073-078-083-087-091-030800-
SOUTHEAST ILLINOIS

CITY           SKY/WX    TMP DP  RH WIND       PRES   REMARKS
LAWRENCEVILLE  PTCLDY    70  68  93 NE7       29.85F FOG
FLORA*         PTCLDY    69  66  89 N5        29.86F
FAIRFIELD*     CLOUDY    70  67  92 N5        29.85S
HARRISBURG*    MOCLDY    72  71  98 NW3       29.87F
ROBINSON*      MOCLDY    69  67  94 N6        29.88F
CARMI*         MOCLDY    71  65  81 NW3       29.85S
$$

ABBREVIATIONS USED IN REMARKS
   TC - TEMPERATURE IN CELSIUS
  WCI - WIND CHILL INDEX
   HX - HEAT INDEX
  VSB - VISIBILITY
$$




USA.gov is the U.S. government's official web portal to all federal, state and local government web resources and services.